Location: Kellogg
(38.0159°N, 90.0546°W)
Time: 14:48:57
(UTC+00:00)

Altair - Visible Passes

Search period start: 13 September 2024 00:00
Search period end: 23 September 2024 00:00
Orbit: 1501 x 1682 km, 47.2° (Epoch: 12 September)

Date Brightness Start Highest point End Pass type
(mag) Time Alt. Az. Time Alt. Az. Time Alt. Az.
13 Sep 9.4 06:32:44 15° E 06:32:44 15° E 06:34:51 10° E visible
13 Sep 7.5 08:30:45 68° S 08:31:33 71° SE 08:41:39 10° ENE visible
13 Sep 8.0 10:28:46 17° W 10:36:51 59° NNW 10:46:54 10° ENE visible
14 Sep 9.6 06:08:56 10° E 06:08:56 10° E 06:09:08 10° E visible
14 Sep 7.7 08:06:57 65° ESE 08:06:57 65° ESE 08:16:21 10° ENE visible
14 Sep 7.9 10:04:59 24° W 10:11:30 61° NNW 10:21:35 10° ENE visible
15 Sep 8.0 07:43:08 53° E 07:43:08 53° E 07:51:04 10° ENE visible
15 Sep 7.8 09:41:09 33° W 09:46:10 63° NNW 09:56:18 10° ENE visible
16 Sep 8.4 07:19:17 42° E 07:19:17 42° E 07:25:45 10° ENE visible
16 Sep 7.7 09:17:17 44° W 09:20:50 66° NNW 09:31:00 10° ENE visible
16 Sep 8.3 11:17:21 10° WNW 11:27:11 51° N 11:36:59 10° ENE visible
17 Sep 8.7 06:55:25 32° E 06:55:25 32° E 07:00:25 10° ENE visible
17 Sep 7.6 08:53:25 57° WNW 08:55:31 69° NNW 09:05:42 10° ENE visible
17 Sep 8.3 10:52:00 10° WNW 11:01:48 50° N 11:11:36 10° ENE visible
18 Sep 9.0 06:31:31 24° ENE 06:31:31 24° ENE 06:35:05 10° ENE visible
18 Sep 7.5 08:29:32 70° NW 08:30:12 72° NNW 08:40:24 10° ENE visible
18 Sep 8.2 10:27:32 13° WNW 10:36:24 50° N 10:46:15 10° ENE visible
19 Sep 9.3 06:07:38 18° ENE 06:07:38 18° ENE 06:09:44 10° ENE visible
19 Sep 7.6 08:05:38 72° N 08:05:38 72° N 08:15:07 10° ENE visible
19 Sep 8.2 10:03:39 19° WNW 10:11:01 51° N 10:20:52 10° ENE visible
20 Sep 9.6 05:43:43 12° ENE 05:43:43 12° ENE 05:44:21 10° ENE visible
20 Sep 7.9 07:41:44 61° NE 07:41:44 61° NE 07:49:50 10° ENE visible
20 Sep 8.1 09:39:44 26° WNW 09:45:39 51° N 09:55:30 10° ENE visible
21 Sep 8.2 07:17:49 48° NE 07:17:49 48° NE 07:24:32 10° ENE visible
21 Sep 8.1 09:15:50 33° WNW 09:20:16 51° N 09:30:08 10° ENE visible
21 Sep 8.1 11:16:39 10° WNW 11:26:42 61° NNE 11:36:42 10° E visible
22 Sep 8.6 06:53:55 37° ENE 06:53:55 37° ENE 06:59:15 10° ENE visible
22 Sep 8.1 08:51:55 42° NW 08:54:53 52° N 09:04:47 10° ENE visible
22 Sep 8.1 10:51:21 10° WNW 11:01:21 59° NNE 11:11:21 10° E visible
